Regional Weather Roundup
Issued by NWS Cleveland, OH

Home | Current Version | Previous Version | Graphics & Text | Print | Product List | Glossary On
Versions: 1 2 3 4 5 6 7 8 9 10 11 12 13 14 15 16 17 18 19 20 21 22 23 24 25 26 27 28 29 30 31 32 33 34 35 36 37 38 39 40 41 42 43 44 45 46 47 48 49 50
000
ASUS41 KCLE 270700
RWRCLE
OHIO REGIONAL WEATHER ROUNDUP
NATIONAL WEATHER SERVICE WILMINGTON, OH
200 AM EST THU NOV 27 2014

NOTE: "FAIR" INDICATES FEW OR NO CLOUDS BELOW 12,000 FEET WITH NO
SIGNIFICANT WEATHER AND/OR OBSTRUCTIONS TO VISIBILITY.

OHZ001>008-015>018-024>027-034-035-043-044-270800-
   NORTHWEST OHIO

CITY           SKY/WX    TMP DP  RH WIND       PRES   REMARKS
DEFIANCE       CLOUDY    30  24  78 N8        30.11R WCI  22
FINDLAY        CLOUDY    31  26  82 NW8       30.06S WCI  23
TOLEDO EXPRESS FLURRIES  30  24  78 N9        30.08F WCI  22
TOLEDO METCALF CLOUDY    32  24  72 NW6       30.09S WCI  26
LIMA           CLOUDY    31  25  78 NW8       30.07S WCI  23
$$

OHZ009>014-019>023-028>033-038-089-270800-
   NORTHEAST OHIO

CITY           SKY/WX    TMP DP  RH WIND       PRES   REMARKS
CLE-HOPKINS    FLURRIES  33  29  85 CALM      30.04F
CLE-LAKEFRONT  LGT SNOW  33  31  92 CALM      30.02F FOG
CUY CO. ARPT   NOT AVBL
LORAIN-ELYRIA  CLOUDY    32  31  96 W5        30.02S FOG     WCI  27
ASHTABULA      LGT SNOW  32  30  92 N3        30.01S FOG
AKRON-CANTON   CLOUDY    30  26  85 NW7       30.00S WCI  23
WOOSTER        NOT AVBL
MANSFIELD      CLOUDY    30  28  92 NW6       30.01F WCI  24
YOUNGSTOWN     CLOUDY    32  26  78 W5        29.98F WCI  27
$$

OHZ042-051>053-060>062-070>072-077>081-270800-
  SOUTHWEST OHIO

CITY           SKY/WX    TMP DP  RH WIND       PRES   REMARKS
CINC-COVINGTON CLOUDY    28  21  75 N6        30.06R WCI  22
CINC-LUNKEN    CLOUDY    29  23  78 N3        30.09S
HAMILTON       MOCLDY    28  23  81 NW6       30.09S WCI  22
DAYTON         NOT AVBL
WRIGHT-PAT AFB NOT AVBL
DAYTON GENERAL PTCLDY    27  22  81 N6        30.05S WCI  20
WILMINGTON     PTCLDY    26  22  84 N6        30.04R WCI  19
$$

OHZ036-037-039>041-045>050-054>059-063>069-073>076-082>088-270800-
  CENTRAL AND SOUTHEAST OHIO

CITY           SKY/WX    TMP DP  RH WIND       PRES   REMARKS
COLUMBUS       CLOUDY    32  27  81 N7        30.04S WCI  26
OSU AIRPORT    CLOUDY    31  26  82 NW7       30.04S WCI  24
BOLTON FIELD   NOT AVBL
RICKENBACK AFB NOT AVBL
NEWARK         CLOUDY    33  26  75 CALM      30.03S
MARION         CLOUDY    30  26  85 NW7       30.04F WCI  23
LANCASTER      CLOUDY    33  28  81 NW5       30.03F WCI  29
ZANESVILLE     CLOUDY    32  25  75 NW5       30.02S WCI  27
NEW PHILLY     CLOUDY    33  26  75 W3        30.02S
$$



USA.gov is the U.S. government's official web portal to all federal, state and local government web resources and services.